Regional Weather Roundup
Issued by NWS

Home | Current Version | Previous Version | Text Only | Print | Product List | Glossary On
Versions: 1 2 3 4 5 6 7 8 9 10 11 12 13 14 15 16 17 18 19 20 21 22 23 24 25 26 27 28 29 30 31 32 33 34 35 36 37 38 39 40 41 42 43 44 45 46 47 48 49 50
000
ASUS43 KOAX 292210
RWRNE

WEATHER ROUNDUP FOR NEBRASKA
NATIONAL WEATHER SERVICE OMAHA NE
500 PM CDT SAT AUG 29 2015

NOTES: SATELLITE DATA IS BEING USED TO AUGMENT CLOUD COVER ABOVE
       12000 FEET.
       "FAIR" INDICATES FEW OR NO CLOUDS BELOW 12,000 FEET WITH NO
       SIGNIFICANT WEATHER AND/OR OBSTRUCTIONS TO VISIBILITY.

  * THESE STATIONS DO NOT REPORT WEATHER SUCH AS RAIN...SNOW OR FOG.

NEZ001>004-019>022-054>056-292300-
NEBRASKA PANHANDLE

CITY           SKY/WX    TMP DP  RH WIND       PRES   REMARKS
SCOTTSBLUFF    SUNNY     92  43  18 S9        30.05F
ALLIANCE       SUNNY     93  39  15 S10       30.06F
CHADRON        SUNNY     96  39  13 S14       29.98F HX  91
KIMBALL        SUNNY     87  35  15 S9G17     30.13F
SIDNEY         SUNNY     92  37  14 S10       30.12F
$$

NEZ057>060-069>072-079>082-292300-
SOUTHWEST NEBRASKA

CITY           SKY/WX    TMP DP  RH WIND       PRES   REMARKS
NORTH PLATTE   MOSUNNY   89  58  34 S6        30.05F
IMPERIAL       MOSUNNY   93  44  18 SE6       30.07F
LEXINGTON      MOSUNNY   87  60  40 SE8       30.06S
MCCOOK         MOSUNNY   91  47  21 E6        30.05F
OGALLALA       SUNNY     93  44  18 S9        30.06F
$$

NEZ005>010-023>029-035>040-094-292300-
NORTH CENTRAL NEBRASKA

CITY           SKY/WX    TMP DP  RH WIND       PRES   REMARKS
VALENTINE      SUNNY     93  47  20 S14       30.00F
AINSWORTH      SUNNY     89  58  34 S7        30.02F
BROKEN BOW     SUNNY     87  60  40 S7        30.05F
O`NEILL        SUNNY     85  62  45 S8        30.02F
ORD            SUNNY     86  59  39 E7        30.02F
THEDFORD       SUNNY     91  56  30 S8G16     30.05F
$$

NEZ041-046>049-061>064-073>077-083>087-292300-
SOUTH CENTRAL NEBRASKA

CITY           SKY/WX    TMP DP  RH WIND       PRES   REMARKS
GRAND ISLAND   SUNNY     81  60  48 SE6       30.06S
AURORA         SUNNY     78  63  61 E3        30.06S
HASTINGS       SUNNY     81  60  48 E5        30.06F
HEBRON         SUNNY     78  60  52 NE5       30.04F
HOLDREGE       SUNNY     82  62  51 E7        30.07S
KEARNEY *      SUNNY     82  61  47 SE6       30.06F
YORK           MOSUNNY   77  63  61 CALM      30.05S
$$

NEZ011>018-030>034-042>045-292300-
NORTHEAST NEBRASKA

CITY           SKY/WX    TMP DP  RH WIND       PRES   REMARKS
NORFOLK        MOSUNNY   79  64  60 S5        30.03F
ALBION         MOSUNNY   79  64  59 SE5       30.05S
BLAIR          PTSUNNY   69  61  76 E3        30.05S
COLUMBUS *     MOSUNNY  N/A N/A N/A NE3       30.03S
FREMONT        MOSUNNY   72  63  72 E6        30.04F
TEKAMAH        MOSUNNY   68  62  81 SE5       30.04F
WAYNE          MOSUNNY   76  65  69 S5        30.04F
$$

NEZ050>053-065>068-078-088>093-292300-
SOUTHEAST NEBRASKA

CITY           SKY/WX    TMP DP  RH WIND       PRES   REMARKS
LINCOLN        SUNNY     73  63  70 SE6       30.05F
OMAHA EPPLEY   CLOUDY    72  63  73 CALM      30.04F
BEATRICE       PTSUNNY   69  62  78 E3        30.05F
FALLS CITY     CLOUDY    68  63  84 N8        30.04S
NEBRASKA CITY  CLOUDY    67  61  82 CALM      30.05F
PLATTSMOUTH    CLOUDY    69  60  73 CALM      30.05F
$$

NEZ044-045-051>053-067-292300-
OMAHA AREA

CITY           SKY/WX    TMP DP  RH WIND       PRES   REMARKS
OMAHA EPPLEY   CLOUDY    72  63  73 CALM      30.04F
BLAIR          PTSUNNY   69  61  76 E3        30.05S
FREMONT        MOSUNNY   72  63  72 E6        30.04F
MILLARD        MOSUNNY   70  62  74 CALM      30.05F
OFFUTT AFB     PTSUNNY   70  62  74 NE2       30.04F
PLATTSMOUTH    CLOUDY    69  60  73 CALM      30.05F
WAHOO          FAIR      72  64  75 SE3       30.05S
$$




USA.gov is the U.S. government's official web portal to all federal, state and local government web resources and services.